Wetbulb
59.30 58.17 56.16 55.30 54.25 54.60 54.97 55.65 55.54 55.45 54.91 53.94 53.28 52.94 51.82 51.13 50.20 49.64 49.26 49.56 49.84 50.13 50.45 50.93 50.94 51.63 50.91 51.06 52.03 52.32 52.10 52.66 52.91 53.60 54.22 57.33 59.64 59.52 60.25 59.77 58.63 57.62 56.80
57.52 56.38 54.75 53.73 53.43 53.48 54.24 54.50 54.99 54.75 54.74 54.75 54.63 53.66 51.93 50.76 49.81 49.23 48.80 48.92 48.74 48.79 48.90 49.48 49.58 49.91 50.57 50.31 50.49 50.77 50.55 51.71 51.53 49.80 51.55 52.51 54.40 55.70 58.43 58.49 55.88 54.58 54.26
56.41 55.44 53.46 52.98 53.16 53.25 53.56 53.34 54.27 54.26 54.40 54.08 52.39 51.44 50.32 49.33 48.35 47.91 47.81 47.57 47.79 48.07 48.92 48.94 49.17 49.34 49.69 48.94 49.16 49.08 48.85 48.79 50.22 50.21 49.23 48.63 48.37 48.41 55.17 56.07 56.18 54.45 54.17
55.81 56.30 53.95 52.58 52.55 53.00 53.54 53.11 52.88 53.41 53.32 53.16 52.12 50.90 50.85 48.46 47.87 47.48 47.46 46.91 47.30 47.25 47.82 48.08 48.21 48.28 48.47 47.88 47.68 48.05 48.37 48.40 47.05 51.42 49.31 49.16 47.19 45.76 45.40 51.04 51.54 52.03 51.74
55.20 55.97 54.28 53.41 53.34 53.02 52.10 51.75 51.31 51.84 52.25 52.52 52.85 51.99 50.41 48.22 47.27 46.76 46.05 45.88 46.19 46.53 46.60 47.28 47.42 47.20 47.57 46.46 46.45 46.70 46.73 47.34 46.87 46.10 46.44 47.14 48.47 44.53 42.28 40.13 44.64 47.17 49.71
54.38 55.43 55.23 54.04 52.67 52.66 51.42 50.71 50.24 50.35 51.13 51.60 51.71 50.98 48.94 46.94 46.10 45.85 45.05 45.30 45.83 45.76 45.62 45.69 46.52 46.63 46.32 45.50 45.80 45.64 45.02 45.37 45.17 45.42 43.46 41.82 40.32 38.94 38.26 37.52 39.18 39.66 45.97
53.84 54.28 53.40 52.06 51.36 50.24 49.55 49.12 49.31 48.31 49.43 49.83 49.50 48.92 47.77 47.18 46.43 45.62 44.46 43.67 43.79 44.11 44.07 44.82 44.52 44.96 45.12 44.32 44.44 44.12 43.70 43.37 42.93 42.56 41.77 40.16 38.36 38.36 38.27 37.91 38.03 38.23 43.06
53.37 53.29 52.83 51.95 50.91 49.42 48.49 47.92 47.78 47.08 47.47 47.57 47.10 47.36 47.14 46.48 45.72 45.40 44.41 42.84 43.24 43.01 43.65 43.80 43.82 43.49 43.46 43.35 43.01 42.69 42.30 42.48 42.19 41.03 39.89 39.36 37.44 37.25 37.02 35.22 34.16 34.16 40.17
52.37 52.31 52.63 51.84 51.05 48.86 47.57 46.88 46.54 45.63 45.85 46.01 45.87 45.59 45.77 45.34 44.25 43.86 43.44 42.26 42.05 41.78 42.58 42.92 42.22 41.46 41.17 41.30 40.90 40.05 39.76 40.30 40.40 39.85 39.45 38.60 36.69 36.17 35.82 35.87 35.21 33.18 31.49
50.84 51.02 51.38 50.24 50.15 48.61 47.23 46.96 46.50 45.01 44.79 45.18 45.08 44.62 44.48 44.41 43.88 42.97 40.92 40.67 40.21 41.25 41.51 41.36 40.62 39.76 39.18 39.06 38.93 38.11 37.88 37.84 37.90 38.09 37.62 37.51 36.47 36.62 35.55 34.45 34.48 34.77 33.07
51.39 50.47 50.33 50.18 48.73 47.23 46.23 45.58 45.26 44.65 44.03 44.06 44.57 44.19 43.57 43.09 42.13 40.15 39.52 38.74 39.71 40.28 40.23 39.60 38.16 37.65 36.96 37.53 37.05 36.53 36.15 35.39 35.80 36.29 35.57 35.15 36.31 35.94 35.70 34.81 33.79 33.34 32.49
50.81 51.05 50.05 48.62 46.89 46.45 45.07 43.81 44.08 44.03 43.47 43.79 42.85 43.13 42.26 41.51 39.40 37.88 37.10 37.82 38.57 39.29 39.02 37.73 36.47 35.75 35.44 35.58 35.06 34.30 35.07 34.25 34.12 34.36 34.76 34.04 34.86 34.82 34.91 35.03 33.56 33.98 34.49
50.01 49.40 48.79 46.94 45.03 44.94 44.76 43.75 43.10 43.63 43.77 42.64 41.06 40.63 39.39 38.55 36.26 36.15 35.49 37.58 37.79 37.88 37.44 36.52 35.35 34.59 34.20 33.65 34.22 34.17 33.98 33.54 33.36 33.68 33.24 32.81 33.25 33.11 33.37 32.68 32.44 32.74 32.76
48.17 47.74 47.36 45.64 44.83 44.06 43.09 42.05 42.07 43.21 42.22 40.48 38.51 37.15 36.90 35.82 35.54 34.91 34.84 36.31 37.52 37.25 36.48 35.42 34.09 33.40 33.29 33.08 33.24 33.74 33.69 32.71 32.06 32.30 32.30 31.12 30.47 30.30 31.13 30.85 30.18 30.40 30.67
46.35 45.81 45.53 45.22 43.69 42.72 42.06 41.38 40.62 40.70 39.63 37.78 37.23 37.30 36.55 35.94 34.96 34.45 35.24 35.20 36.44 36.40 35.54 34.31 33.81 33.49 32.42 32.33 32.59 32.94 33.26 31.99 31.02 30.60 30.06 28.70 26.27 24.79 25.73 28.32 27.87 28.72 27.76
45.04 45.31 44.64 44.19 42.29 41.70 41.72 41.00 40.50 39.55 39.02 37.20 36.08 35.50 34.70 34.09 33.29 33.59 33.05 33.47 34.43 34.48 34.80 32.99 32.74 31.60 29.90 26.34 28.04 32.17 32.09 31.16 30.29 29.22 29.43 28.73 26.28 23.65 22.06 23.17 23.12 22.86 24.32
43.17 43.16 43.83 43.55 42.81 41.72 41.78 41.21 39.08 38.68 37.64 36.44 35.08 33.67 33.75 32.39 32.40 31.39 30.54 31.33 32.70 33.57 32.92 32.16 32.18 30.65 29.00 26.43 26.96 28.71 31.45 29.88 28.72 28.22 28.27 26.83 25.90 25.55 25.73 21.13 22.08 21.71 21.49
46.07 44.20 41.97 41.38 41.92 41.64 39.48 38.17 37.64 36.13 33.95 32.98 32.63 32.64 32.27 30.65 30.15 29.35 28.80 30.62 32.14 32.26 30.27 29.91 31.06 30.18 27.69 26.11 26.72 27.82 29.82 28.74 27.56 26.99 26.08 25.24 23.80 22.50 24.53 23.78 21.20 20.09 19.49
45.81 44.97 43.47 41.73 40.16 37.91 36.95 34.49 32.17 31.99 31.99 31.57 31.86 31.60 31.48 30.17 29.43 27.95 27.61 29.64 29.88 29.39 28.95 29.91 29.37 28.01 26.95 25.46 25.94 28.32 28.35 26.96 26.07 26.04 25.43 24.33 21.82 19.11 19.61 20.59 18.70 18.75 18.43
41.85 43.54 43.90 42.23 39.53 37.52 36.25 32.58 31.99 31.81 31.54 31.47 31.45 31.63 31.06 29.46 26.69 26.94 26.91 28.90 29.81 28.72 29.52 28.06 28.32 26.72 26.13 24.94 25.10 27.98 28.87 26.58 26.42 26.16 24.67 21.31 20.89 19.19 18.40 19.69 18.93 15.82 15.64
39.70 41.57 43.10 41.43 36.99 37.95 36.37 32.36 31.98 31.72 31.92 31.75 31.45 31.04 29.49 26.71 26.15 26.85 27.96 27.60 28.24 28.18 27.18 26.97 27.21 27.06 26.35 25.00 23.55 24.46 28.16 27.25 26.19 26.04 25.04 23.38 19.42 18.91 18.27 17.56 17.11 15.07 17.70
38.53 39.97 40.49 40.03 38.91 38.45 35.63 32.25 31.80 31.96 31.42 31.33 30.63 28.68 27.21 26.23 25.94 25.80 26.70 27.35 27.20 25.91 25.88 25.98 25.99 26.60 26.78 23.94 22.65 22.82 23.65 23.55 25.06 24.41 24.39 21.53 18.49 17.60 16.73 16.46 14.34 14.43 18.06
37.33 38.35 37.24 36.53 36.76 36.54 35.31 32.42 31.74 31.49 30.75 30.72 28.71 27.44 26.75 26.78 26.37 25.61 25.70 26.28 26.70 26.62 26.02 25.70 25.18 25.32 26.84 25.73 22.33 21.26 20.51 20.52 23.34 23.88 19.77 17.23 15.22 15.55 16.03 14.14 14.72 16.68 19.43
37.88 36.94 35.79 34.59 34.32 34.97 34.07 31.67 31.03 30.91 29.63 28.61 27.65 27.00 26.14 26.08 27.26 27.18 27.36 26.90 26.89 26.66 26.29 26.42 26.64 25.76 26.44 25.13 24.59 22.97 21.65 19.62 19.98 16.99 17.43 14.21 13.23 11.79 14.02 17.74 17.44 17.62 17.69
37.50 37.74 35.41 33.91 33.16 31.71 30.38 30.95 30.68 30.78 29.99 29.15 28.13 26.98 26.54 26.90 26.77 27.53 28.06 27.47 28.35 28.36 27.18 27.54 27.68 26.22 24.79 25.06 24.33 23.01 22.11 21.40 19.28 17.12 17.73 18.71 19.35 19.06 19.36 18.29 16.93 18.81 19.17
36.84 35.29 35.63 33.06 30.89 30.19 30.08 30.85 31.84 31.73 30.46 29.18 28.23 27.39 26.21 26.60 27.38 26.73 25.83 25.04 25.09 24.05 25.03 25.74 26.79 26.91 25.32 22.28 21.21 20.17 18.66 16.70 14.85 17.95 18.50 18.97 19.90 19.75 19.51 19.06 18.36 18.21 16.11
MSLP
1009.43 1011.54 1013.14 1014.15 1014.98 1015.56 1015.96 1016.51 1017.15 1017.94 1018.13 1018.37 1018.43 1018.62 1019.03 1020.00 1020.55 1021.08 1021.50 1021.51 1021.54 1021.46 1020.98 1020.61 1020.56 1020.39 1020.31 1020.33 1020.06 1019.59 1019.25 1018.73 1018.79 1017.56 1016.76 1016.15 1016.61 1016.60 1016.55 1016.61 1016.80 1017.07 1017.47
1008.75 1010.64 1012.44 1013.83 1014.56 1015.08 1015.55 1016.09 1016.66 1017.42 1017.90 1017.98 1018.15 1018.49 1019.21 1019.91 1020.60 1021.20 1021.63 1021.75 1021.82 1021.77 1021.48 1021.14 1020.96 1020.85 1020.47 1020.57 1020.47 1020.21 1019.58 1019.26 1019.49 1018.82 1017.71 1016.24 1016.02 1016.46 1016.72 1016.80 1017.39 1017.88 1017.96
1006.92 1009.03 1011.13 1012.57 1013.74 1014.33 1015.04 1015.65 1016.14 1016.93 1017.49 1017.83 1018.70 1019.02 1019.50 1020.16 1020.41 1021.05 1021.48 1022.00 1021.99 1021.98 1021.74 1021.56 1021.28 1021.09 1020.87 1020.93 1021.01 1020.92 1020.68 1019.87 1019.84 1020.00 1019.28 1017.93 1017.09 1017.52 1016.37 1017.03 1017.28 1017.94 1017.84
1005.75 1007.63 1009.90 1011.50 1012.50 1013.50 1014.64 1015.37 1016.04 1016.69 1017.40 1018.00 1018.01 1018.25 1018.08 1018.68 1019.84 1020.71 1021.47 1021.83 1022.03 1022.08 1022.01 1021.81 1021.66 1021.54 1021.44 1021.56 1021.59 1021.58 1021.28 1020.83 1020.31 1019.99 1020.20 1020.38 1020.29 1019.18 1018.06 1017.48 1017.79 1018.16 1017.99
1005.34 1006.88 1009.08 1010.92 1012.45 1013.43 1014.29 1015.22 1016.10 1016.63 1017.24 1017.52 1017.57 1017.76 1018.04 1019.08 1019.98 1020.75 1021.48 1021.88 1022.12 1022.24 1022.30 1022.17 1022.13 1021.97 1021.85 1022.23 1022.15 1021.95 1021.82 1021.45 1020.99 1020.83 1020.73 1020.66 1020.38 1021.16 1020.79 1019.58 1018.80 1019.16 1018.36
1004.74 1006.18 1008.55 1010.60 1012.09 1013.36 1014.12 1014.85 1015.56 1016.26 1017.19 1017.49 1017.66 1017.81 1018.19 1018.86 1019.54 1020.31 1020.92 1021.45 1021.89 1022.22 1022.67 1022.66 1022.48 1022.38 1022.41 1022.65 1022.63 1022.70 1022.63 1022.35 1022.12 1021.69 1021.99 1021.98 1021.92 1022.13 1022.10 1021.58 1020.68 1020.19 1019.22
1004.98 1006.27 1007.99 1009.65 1011.16 1012.60 1013.72 1014.54 1015.21 1015.83 1016.84 1017.41 1017.74 1018.10 1018.38 1018.85 1019.22 1019.88 1020.55 1021.31 1021.84 1022.25 1022.83 1022.90 1022.81 1022.74 1022.77 1023.07 1023.01 1022.87 1022.83 1022.89 1022.89 1022.88 1022.66 1023.17 1023.63 1023.80 1023.36 1022.91 1021.74 1021.00 1019.97
1005.73 1007.00 1008.17 1009.75 1011.07 1012.72 1013.62 1014.18 1014.92 1015.82 1016.72 1017.44 1017.92 1018.31 1018.58 1018.89 1019.34 1019.88 1020.61 1021.32 1021.83 1022.43 1022.86 1023.02 1023.24 1023.26 1023.21 1023.28 1023.36 1023.21 1023.15 1023.11 1023.11 1023.14 1023.61 1023.73 1024.30 1024.50 1024.19 1024.13 1023.51 1021.95 1020.45
1006.42 1007.31 1008.49 1009.87 1011.02 1012.67 1013.64 1014.06 1014.89 1015.79 1016.64 1017.26 1017.94 1018.43 1018.74 1019.06 1019.55 1020.15 1020.87 1021.49 1022.20 1022.69 1023.11 1023.16 1023.27 1023.90 1023.84 1023.66 1023.65 1023.62 1023.40 1023.41 1023.56 1023.55 1023.76 1024.07 1024.64 1024.84 1025.09 1024.87 1024.61 1023.83 1022.47
1007.20 1007.92 1008.76 1009.85 1010.94 1012.62 1013.82 1014.03 1014.61 1015.47 1016.45 1017.26 1017.96 1018.55 1018.97 1019.45 1019.92 1020.43 1021.08 1021.68 1022.45 1022.91 1023.47 1023.41 1023.53 1024.00 1024.12 1024.02 1023.94 1023.86 1023.81 1023.54 1024.03 1023.98 1024.16 1024.29 1024.86 1024.84 1025.06 1025.21 1025.14 1024.45 1023.94
1006.99 1008.07 1009.33 1010.26 1011.50 1012.75 1013.64 1014.33 1014.81 1015.32 1016.21 1017.03 1017.73 1018.59 1019.11 1019.73 1020.43 1020.85 1021.31 1021.88 1022.47 1022.94 1023.38 1023.40 1023.66 1023.91 1024.25 1024.21 1024.68 1024.46 1024.36 1024.29 1024.41 1024.23 1024.30 1024.63 1024.73 1025.11 1025.31 1025.51 1025.23 1024.60 1024.52
1007.24 1007.86 1008.74 1010.36 1011.60 1012.55 1013.50 1014.23 1014.70 1015.44 1016.30 1017.03 1017.75 1018.28 1019.22 1019.93 1020.98 1021.32 1021.51 1022.17 1022.73 1023.10 1023.45 1023.44 1023.75 1024.08 1024.40 1024.64 1024.97 1025.11 1024.78 1024.84 1024.60 1024.54 1024.29 1024.40 1024.74 1025.44 1025.59 1025.27 1024.92 1024.50 1024.27
1007.32 1008.10 1008.63 1009.61 1011.12 1012.28 1013.12 1013.93 1014.57 1015.32 1016.31 1017.17 1017.96 1018.62 1019.36 1020.32 1021.51 1021.68 1021.37 1022.50 1022.66 1023.69 1023.59 1023.69 1024.02 1024.26 1024.80 1025.21 1025.21 1025.37 1025.34 1025.25 1024.97 1025.10 1025.25 1025.59 1025.72 1025.69 1025.91 1025.44 1025.12 1024.64 1024.46
1008.01 1008.49 1009.07 1009.79 1010.87 1011.84 1012.70 1013.80 1014.46 1014.89 1016.00 1017.40 1018.48 1019.16 1019.70 1020.58 1021.31 1021.36 1022.17 1022.70 1022.61 1023.70 1023.66 1024.27 1024.62 1024.81 1025.25 1025.28 1025.07 1025.35 1025.59 1025.29 1025.38 1025.44 1025.87 1026.53 1027.08 1027.00 1026.40 1026.04 1025.94 1025.33 1025.00
1008.66 1009.18 1009.44 1009.92 1010.74 1011.65 1012.44 1013.42 1014.48 1015.20 1016.08 1017.25 1018.59 1019.68 1020.37 1020.82 1021.10 1021.76 1022.53 1022.51 1023.32 1023.49 1024.04 1024.57 1024.93 1025.25 1025.82 1025.64 1025.88 1025.88 1025.31 1025.51 1025.37 1026.40 1026.78 1027.69 1028.98 1029.02 1028.24 1027.46 1027.15 1026.30 1026.19
1008.92 1009.27 1009.73 1010.12 1010.90 1011.43 1012.26 1013.16 1014.02 1015.04 1016.05 1017.02 1018.31 1019.87 1020.75 1020.93 1021.49 1022.12 1022.89 1023.00 1023.64 1023.78 1024.22 1024.74 1025.37 1026.08 1026.56 1027.45 1027.22 1026.07 1025.90 1025.68 1026.00 1026.41 1027.16 1027.78 1028.86 1029.41 1029.33 1029.50 1029.01 1028.60 1028.09
1009.06 1009.39 1009.56 1010.05 1010.72 1011.42 1012.14 1012.82 1014.00 1015.14 1015.92 1017.31 1018.90 1019.91 1020.42 1021.13 1021.97 1022.99 1023.04 1023.58 1023.85 1024.30 1024.48 1025.16 1025.62 1026.38 1027.14 1028.01 1027.67 1026.80 1026.33 1027.37 1027.13 1027.60 1027.59 1028.34 1029.19 1028.59 1028.57 1030.03 1029.51 1029.45 1029.72
1008.77 1009.11 1009.66 1010.21 1010.58 1011.46 1012.64 1013.51 1014.23 1015.26 1016.21 1017.79 1019.01 1019.89 1020.40 1021.60 1022.43 1023.34 1023.87 1023.96 1024.49 1025.11 1025.60 1025.96 1026.20 1026.91 1028.15 1028.69 1028.24 1027.36 1027.42 1028.11 1028.81 1028.75 1028.98 1029.69 1029.70 1029.81 1029.14 1029.51 1029.92 1030.26 1030.76
1009.21 1009.24 1009.51 1009.92 1010.51 1011.63 1012.76 1013.54 1014.53 1015.35 1016.60 1017.47 1018.87 1020.17 1020.66 1021.52 1022.55 1023.43 1023.85 1024.51 1025.19 1025.66 1025.88 1026.68 1026.75 1027.54 1028.53 1029.10 1028.44 1027.42 1028.14 1028.98 1029.58 1029.60 1029.99 1030.42 1030.55 1030.75 1030.81 1030.52 1030.46 1030.88 1031.17
1009.91 1009.37 1009.58 1009.83 1010.64 1011.52 1012.19 1013.26 1013.86 1014.83 1016.00 1017.35 1018.65 1019.72 1020.97 1022.17 1022.98 1023.65 1024.04 1024.59 1025.24 1025.79 1026.36 1026.98 1027.40 1028.18 1028.80 1029.11 1029.14 1028.20 1028.35 1029.19 1030.08 1030.06 1030.71 1031.36 1031.26 1031.22 1031.39 1031.31 1031.07 1031.31 1031.76
1010.35 1009.94 1009.51 1009.87 1010.59 1011.31 1012.27 1013.22 1014.08 1014.82 1015.75 1017.03 1018.39 1019.97 1021.24 1022.37 1023.16 1023.81 1024.80 1024.77 1025.35 1025.85 1026.52 1026.99 1027.77 1028.31 1028.77 1029.69 1029.61 1029.02 1028.80 1029.48 1030.09 1030.20 1030.84 1031.57 1032.01 1031.88 1031.97 1032.07 1032.16 1032.30 1031.99
1010.76 1010.44 1009.97 1010.19 1010.82 1011.32 1012.50 1013.16 1014.24 1015.20 1016.02 1017.13 1018.62 1020.14 1021.36 1022.54 1023.27 1023.95 1024.75 1025.23 1025.62 1026.19 1026.69 1026.94 1027.78 1028.39 1028.96 1029.75 1030.07 1030.21 1029.55 1030.27 1030.45 1030.74 1031.49 1032.32 1032.53 1032.62 1032.68 1032.77 1033.14 1032.96 1032.23
1011.29 1011.10 1011.11 1011.21 1011.50 1012.02 1012.72 1013.57 1014.54 1015.45 1016.61 1017.88 1019.08 1020.16 1021.73 1022.54 1023.34 1023.88 1024.65 1024.99 1025.44 1026.04 1026.37 1026.55 1027.46 1028.53 1029.01 1029.75 1030.54 1030.84 1030.57 1031.12 1031.25 1031.48 1032.74 1033.23 1033.41 1033.23 1033.32 1033.54 1033.33 1032.85 1032.37
1011.47 1011.46 1011.69 1011.95 1012.53 1012.74 1013.07 1013.95 1014.96 1016.03 1016.97 1018.00 1019.38 1020.84 1021.33 1022.25 1023.25 1023.88 1024.48 1024.82 1025.24 1025.35 1025.67 1026.27 1026.95 1028.21 1028.66 1029.66 1030.34 1030.81 1031.00 1031.58 1032.09 1033.12 1033.59 1034.00 1034.02 1034.08 1033.85 1033.20 1033.26 1033.34 1033.27
1012.03 1011.82 1012.06 1012.39 1013.05 1013.83 1014.40 1014.84 1015.34 1016.17 1017.31 1018.32 1019.34 1020.47 1021.14 1021.96 1022.89 1023.67 1024.17 1024.79 1024.92 1024.95 1025.09 1025.96 1026.64 1027.58 1028.88 1029.72 1030.17 1030.12 1030.85 1031.32 1032.09 1033.17 1033.50 1033.43 1033.24 1033.14 1033.10 1033.26 1033.38 1033.26 1033.11
1012.28 1012.54 1012.50 1012.98 1013.54 1014.51 1015.06 1015.49 1015.96 1016.45 1017.14 1018.42 1019.27 1020.18 1021.18 1021.95 1022.60 1023.52 1024.56 1025.33 1025.61 1026.09 1026.10 1026.48 1026.88 1027.95 1028.90 1030.28 1030.80 1030.96 1031.46 1032.20 1032.85 1032.92 1032.95 1032.97 1032.91 1032.75 1032.79 1032.92 1033.15 1033.40 1033.55
Wind_Speed
19 17 16 14 14 14 14 14 13 12 10 9 8 7 7 6 6 6 7 6 6 6 5 4 5 4 5 6 6 5 6 5 8 6 4 3 3 3 3 5 5 7 8
20 19 19 18 16 16 15 15 14 14 10 7 5 6 7 6 6 5 6 6 7 6 6 5 5 6 4 7 8 8 5 4 6 6 6 2 6 4 2 3 5 7 7
27 24 23 22 19 18 17 15 15 15 11 9 7 7 8 7 6 6 6 6 7 7 7 7 6 6 6 6 7 8 8 5 4 6 6 4 4 8 4 1 3 6 5
25 24 24 23 22 19 16 15 14 14 12 12 10 12 8 8 6 5 6 6 7 7 7 8 8 8 6 7 6 6 6 6 5 1 4 4 3 4 5 5 9 6 10
22 22 23 22 20 18 16 14 13 14 13 13 11 9 8 9 8 7 8 7 7 7 7 7 7 7 6 6 6 6 6 5 4 5 5 5 3 4 3 7 6 11 10
21 20 19 19 19 17 16 15 16 14 13 12 12 11 12 12 10 9 7 6 5 5 6 6 6 6 6 6 5 6 7 6 6 5 6 5 4 5 4 6 8 9 8
15 16 20 21 21 21 18 16 16 15 14 14 12 12 13 12 13 11 7 7 6 5 5 5 5 5 6 6 5 5 6 7 7 7 6 6 6 5 5 7 8 7 10
8 14 18 19 20 20 19 18 17 16 14 14 13 12 13 9 9 9 8 6 5 5 6 6 6 6 5 5 5 4 5 6 6 9 8 5 4 5 5 5 6 7 7
7 11 14 17 18 19 19 18 18 16 15 14 13 13 11 12 11 12 10 7 7 6 6 6 7 6 6 5 6 5 6 6 6 7 6 5 5 4 4 5 5 4 5
7 8 12 16 16 17 17 18 18 17 16 15 13 12 12 12 12 11 10 9 8 7 7 7 7 6 6 6 5 5 6 7 6 6 7 7 5 5 4 5 4 4 5
10 7 10 12 15 17 18 17 17 18 17 16 14 14 13 13 12 11 10 9 8 8 7 8 7 7 6 6 6 7 7 7 7 7 8 8 7 5 4 3 4 4 4
12 9 11 13 15 18 18 18 17 16 16 15 15 15 14 13 11 11 11 9 8 8 8 8 8 7 7 6 6 6 7 7 8 8 9 9 6 6 6 4 5 5 4
13 11 11 15 17 18 18 18 18 17 16 15 15 14 14 13 12 11 11 9 10 8 8 8 8 8 7 6 6 6 7 8 9 10 10 10 8 7 6 7 6 6 4
16 11 12 13 15 17 17 16 17 18 16 15 14 14 14 13 12 11 10 10 10 9 9 8 8 7 7 6 7 7 7 9 10 10 10 11 10 10 9 8 8 7 6
15 13 12 13 15 17 17 18 16 16 16 16 15 13 13 13 12 11 11 11 9 8 10 9 8 7 5 4 6 6 8 9 11 9 10 11 12 13 16 9 10 9 7
13 13 13 14 15 18 19 18 17 16 16 16 15 14 13 13 12 12 11 11 10 9 10 9 8 8 7 8 6 6 8 9 8 8 8 9 6 12 15 15 18 17 11
8 10 12 13 15 17 17 18 15 15 14 14 13 14 14 14 12 11 10 10 10 9 10 9 9 10 11 10 9 9 10 9 10 9 8 7 5 7 8 9 11 17 16
12 9 6 7 9 9 10 10 12 13 13 11 11 13 14 13 12 10 9 10 9 8 9 8 8 10 10 10 11 13 12 11 10 10 9 7 9 10 7 8 9 10 12
11 6 7 9 10 12 14 14 12 13 13 15 14 12 12 13 13 12 12 10 10 10 10 8 9 10 10 10 9 11 10 10 9 10 10 8 9 12 9 7 8 8 8
10 9 5 10 12 14 16 15 16 16 16 16 14 13 13 12 12 13 13 12 11 11 10 10 9 11 10 10 8 8 8 9 7 8 11 13 11 13 10 6 6 7 7
11 12 9 8 10 12 14 14 14 16 14 15 15 14 13 13 13 13 10 12 11 12 11 11 9 9 9 8 8 6 6 6 5 6 6 7 12 13 13 11 8 7 5
10 10 6 5 8 12 12 11 12 11 15 16 15 14 14 11 11 14 12 12 12 12 11 12 9 7 9 11 10 9 11 6 6 6 6 8 12 13 12 10 10 7 4
5 6 4 5 6 9 10 11 10 15 15 15 14 16 13 13 13 14 13 11 11 10 10 9 9 7 7 8 13 12 14 10 6 6 8 9 8 8 10 12 10 6 5
3 3 4 6 6 6 9 11 13 14 16 17 17 14 15 14 13 10 9 9 10 9 9 8 9 8 8 8 8 7 8 11 9 9 5 6 7 7 4 4 5 5 5
3 3 5 7 8 8 11 12 15 16 15 15 15 14 12 13 12 10 9 8 7 7 9 8 8 8 8 7 9 9 7 6 7 6 4 3 3 3 3 4 4 4 4
2 1 5 8 10 9 10 11 13 16 16 15 13 12 12 11 11 10 9 9 10 7 7 9 8 6 10 14 12 12 12 14 12 5 4 3 3 3 3 3 4 4 4
Wind_Direction
203 188 193 183 182 181 177 175 164 163 161 163 158 150 130 119 106 91 78 67 60 52 48 63 55 41 39 28 14 354 2 8 353 315 331 270 132 76 66 54 61 45 53
204 193 194 191 191 184 184 179 176 171 180 170 160 137 131 112 103 99 87 77 71 63 64 58 55 34 47 37 27 21 355 21 17 345 275 285 180 84 72 102 83 43 25
210 196 196 194 190 189 186 185 178 175 182 159 148 136 125 136 140 134 113 84 80 74 67 63 59 57 43 41 29 17 18 355 27 21 342 308 340 338 163 109 23 4 356
220 200 197 195 194 187 184 184 179 181 181 182 171 174 167 152 115 123 111 104 89 80 70 67 61 57 56 45 40 28 13 352 28 45 22 3 342 326 302 338 340 333 317
226 211 201 200 195 184 179 180 180 186 182 187 186 177 157 128 138 129 129 110 95 78 73 70 71 72 70 66 48 44 32 42 25 28 6 16 334 67 297 295 331 336 322
229 215 203 195 193 184 180 178 178 180 184 186 181 182 157 152 147 144 139 124 112 99 82 85 77 71 78 64 56 51 43 35 38 40 40 29 24 358 346 317 324 318 312
229 210 201 194 191 186 181 177 179 174 179 180 175 168 157 156 145 146 140 139 131 120 104 101 89 90 85 80 64 68 64 48 45 36 50 41 28 356 341 317 332 313 312
229 219 206 199 194 190 185 178 176 169 170 168 166 162 155 154 145 140 137 130 131 122 127 120 107 89 89 93 77 70 61 59 59 55 48 57 37 5 4 342 334 322 319
251 221 211 201 196 191 188 178 175 172 172 169 163 161 161 153 147 139 136 136 131 130 135 125 110 100 86 77 86 66 66 63 56 61 60 50 39 20 359 354 333 331 324
298 241 211 200 194 192 188 180 178 172 169 166 166 162 158 150 145 140 138 136 130 134 145 129 115 101 91 85 87 90 66 72 61 55 48 39 31 20 12 355 333 330 327
320 247 224 204 196 190 187 184 179 172 169 168 166 162 156 149 146 139 140 133 137 145 144 125 112 104 96 86 82 80 85 76 79 72 60 46 41 22 6 344 337 347 341
299 248 208 200 201 196 189 185 179 175 173 170 165 161 152 150 146 147 132 134 145 139 144 126 114 102 93 90 98 87 80 77 72 64 60 49 32 13 7 353 357 358 345
301 257 211 196 197 200 193 186 180 178 175 169 163 159 152 151 155 145 127 152 139 145 134 123 115 108 104 109 102 99 94 81 72 59 52 42 29 29 11 17 0 358 352
301 266 227 211 204 200 189 187 185 177 170 162 161 160 159 156 150 135 143 149 138 150 123 113 113 115 126 126 120 116 107 85 73 71 62 52 35 28 15 27 15 6 2
298 275 245 225 207 204 192 188 182 174 163 159 163 166 157 153 142 141 147 133 148 137 124 125 118 117 116 83 115 115 98 93 87 79 73 64 54 50 41 25 25 22 24
296 278 260 245 222 205 199 191 180 171 166 156 157 153 158 146 145 142 145 141 145 139 134 117 120 110 88 85 43 85 90 84 86 87 81 87 99 84 58 49 54 46 19
269 285 275 241 227 212 203 192 170 162 155 150 150 156 152 146 141 144 136 145 142 136 122 121 120 110 108 106 93 73 77 74 75 61 68 78 89 63 82 81 61 60 49
271 249 235 247 224 202 183 163 151 145 136 140 147 155 143 141 134 140 144 139 127 113 110 115 115 110 100 113 104 93 86 80 74 76 79 67 63 42 43 70 66 59 49
313 256 222 203 176 169 160 146 146 140 145 147 151 152 143 141 149 144 140 137 134 131 122 124 115 118 121 127 120 101 95 87 85 78 64 70 67 60 42 62 71 62 52
297 289 246 188 180 178 163 158 159 158 158 152 149 138 141 146 140 141 141 140 135 130 125 122 119 125 126 122 113 105 111 109 100 95 89 66 66 66 58 60 70 67 43
322 320 274 191 181 163 166 169 167 168 150 141 135 137 140 138 137 138 143 136 135 132 130 124 124 126 123 124 113 104 115 117 113 99 85 74 67 67 66 64 55 50 27
344 349 13 115 151 158 161 154 160 144 138 138 135 130 135 138 147 140 141 140 135 135 140 135 131 126 127 124 106 100 91 101 116 94 90 85 76 71 67 68 65 59 63
356 5 47 92 119 147 155 146 138 138 134 130 128 129 138 147 147 144 147 145 149 156 151 146 140 148 137 129 121 109 105 104 112 91 82 95 81 81 77 59 54 47 49
359 90 103 112 121 135 134 126 132 135 132 132 135 139 146 146 154 150 157 155 164 161 155 155 150 155 151 145 150 131 118 116 106 115 97 84 86 69 78 69 65 56 43
289 154 137 126 117 115 127 139 141 139 136 135 140 146 141 154 155 158 159 169 164 165 159 162 159 158 167 168 160 148 146 140 114 130 150 157 147 130 114 96 72 58 51
285 238 145 140 127 137 142 144 147 146 142 145 144 144 151 156 159 150 140 82 110 111 103 130 150 145 122 141 152 144 135 130 141 166 167 171 175 135 113 97 91 69 60